Flag for India Weather past 2 weeks in Navi Mumbai, Maharashtra, India

Now
79 °F

Light rain. More clouds than sun.


Feels Like: 83 °F
Forecast: 78 / 87 °F
Wind: 6 mph from Southeast

Location: Mumbai / Santacruz

Current Time: Aug 28, 2015 at 7:57:53 AM

Latest Report: Aug 28, 2015 at 7:10 AM


Visibility: 1 mi

Pressure: 29.74 "Hg

Humidity: 94%

Dew point: 77 °F

Location of Navi MumbaiLocation

Historic Weather in Navi Mumbai — Graph

°F

Navi Mumbai temperature yesterday

Maximum temperature yesterday: 88 °F (at 12:10 PM)
Minimum temperature yesterday: 82 °F (at 1:40 AM)
Average temperature yesterday: 85 °F

Past Weeks' High & Low Weather Summary

 TemperatureHumidityPressure
High88 °F (Aug 16, 12:10 PM)94% (Aug 15, 4:10 AM)29.86 "Hg (Aug 15, 4:10 AM)
Low79 °F (Aug 15, 4:10 AM)62% (Aug 21, 3:40 PM)29.68 "Hg (Aug 13, 4:10 PM)
Average84 °F80%29.77 "Hg
* Reported Aug 13 7:40 AM — Aug 28 6:40 AM, Navi Mumbai, Weather by CustomWeather, © 2015

Note: Actual official high and low records may vary slightly from our data, if they occured in-between our weather recording intervals... More about our weather records

Advertising

Navi Mumbai weather history for previous 24 hours

 ConditionsComfort  
Time TempWeatherWind HumidityBarometerVisibility
6:40 AM
Fri, Aug 28
79 °FLight rain. Mostly cloudy.5 mph94%29.71 "Hg1 mi
6:10 AM79 °FScattered showers. Passing clouds.6 mph94%29.71 "Hg1 mi
5:40 AM79 °FLight rain. Partly cloudy.5 mph94%29.71 "Hg2 mi
3:40 AM79 °FPartly cloudy.5 mph94%29.68 "Hg2 mi
3:10 AM79 °FPartly cloudy.6 mph94%29.68 "Hg2 mi
1:40 AM81 °FPartly cloudy.3 mph89%29.71 "Hg1 mi
12:40 AM82 °FPartly cloudy.6 mph84%29.74 "Hg2 mi
12:10 AM84 °FPartly cloudy.6 mph79%29.74 "Hg2 mi
11:40 PM
Thu, Aug 27
82 °FPartly cloudy.6 mph84%29.74 "Hg2 mi
11:10 PM82 °FPartly cloudy.7 mph84%29.74 "Hg2 mi
10:40 PM82 °FPartly cloudy.9 mph84%29.74 "Hg2 mi
10:10 PM82 °FPartly cloudy.9 mph89%29.74 "Hg3 mi
9:40 PM84 °FPassing clouds.7 mph79%29.74 "Hg3 mi
9:10 PM86 °FPassing clouds.6 mph75%29.74 "Hg3 mi
8:40 PM84 °FPassing clouds.8 mph74%29.74 "Hg3 mi
8:10 PM84 °FPassing clouds.7 mph79%29.71 "Hg3 mi
7:40 PM84 °FPassing clouds.9 mph79%29.71 "Hg3 mi
7:10 PM84 °FScattered clouds.9 mph74%29.68 "Hg3 mi
6:40 PM86 °FBroken clouds.9 mph70%29.68 "Hg3 mi
6:10 PM84 °FScattered clouds.14 mph79%29.68 "Hg3 mi
5:10 PM86 °FScattered clouds.13 mph70%29.68 "Hg4 mi
4:40 PM86 °FScattered clouds.14 mph75%29.68 "Hg4 mi
4:10 PM88 °FScattered clouds.14 mph70%29.68 "Hg4 mi
3:40 PM86 °FScattered clouds.12 mph70%29.68 "Hg4 mi
3:10 PM88 °FScattered clouds.10 mph66%29.71 "Hg4 mi
2:40 PM88 °FScattered clouds.13 mph66%29.71 "Hg4 mi
2:10 PM88 °FScattered clouds.13 mph70%29.71 "Hg4 mi
1:40 PM88 °FScattered clouds.12 mph70%29.71 "Hg4 mi
1:10 PM88 °FScattered clouds.12 mph66%29.74 "Hg4 mi
12:40 PM88 °FScattered clouds.13 mph66%29.74 "Hg4 mi
12:10 PM88 °FScattered clouds.12 mph70%29.74 "Hg4 mi
11:40 AM86 °FBroken clouds.12 mph75%29.74 "Hg4 mi
10:40 AM86 °FBroken clouds.12 mph75%29.77 "Hg4 mi
10:10 AM86 °FBroken clouds.12 mph75%29.77 "Hg4 mi
9:10 AM84 °FBroken clouds.12 mph79%29.74 "Hg4 mi
8:40 AM84 °FBroken clouds.10 mph79%29.74 "Hg5 mi
8:10 AM84 °FBroken clouds.10 mph79%29.74 "Hg5 mi
7:40 AM84 °FBroken clouds.10 mph74%29.74 "Hg5 mi
7:10 AM84 °FScattered clouds.12 mph79%29.71 "Hg4 mi
Weather by CustomWeather, © 2015

See weather overviewHow to use our weather pages